Location: Nairn
(57.5833°N, 3.8667°W)
Time: 20:40:31
(UTC+00:00)

Vanguard 2 - Visible Passes

Search period start: 19 January 2022 00:00
Search period end: 29 January 2022 00:00
Orbit: 553 x 2936 km, 32.9° (Epoch: 19 January)

Date Brightness Start Highest point End Pass type
(mag) Time Alt. Az. Time Alt. Az. Time Alt. Az.
19 Jan 11.7 01:55:16 10° SE 01:55:16 10° SE 01:55:25 10° SE visible
19 Jan 11.4 03:56:39 16° S 03:56:39 16° S 04:00:57 10° S visible
20 Jan 11.7 02:11:54 10° SSE 02:11:54 10° SSE 02:11:56 10° SSE visible
20 Jan 11.5 04:13:18 13° SSW 04:13:18 13° SSW 04:15:56 10° S visible
24 Jan 11.0 20:52:22 10° S 20:52:55 11° S 20:52:55 11° S visible
25 Jan 11.0 21:08:45 10° SSW 21:09:32 12° SSW 21:09:32 12° SSW visible
26 Jan 11.0 21:25:24 10° SSW 21:26:08 12° SSW 21:26:08 12° SSW visible
27 Jan 10.8 19:39:40 10° SSE 19:41:19 11° SSE 19:41:19 11° SSE visible
27 Jan 11.0 21:42:17 10° SSW 21:42:42 11° SSW 21:42:42 11° SSW visible
28 Jan 10.7 19:55:11 10° S 19:57:53 13° SSE 19:57:53 13° SSE visible
